Regional Weather Roundup
Issued by NWS Wakefield, VA

Home | Current Version | Previous Version | Text Only | Print | Product List | Glossary On
Versions: 1 2 3 4 5 6 7 8 9 10 11 12 13 14 15 16 17 18 19 20 21 22 23 24 25 26 27
000
ASUS41 KAKQ 271016
RWRAKQ

REGIONAL WEATHER ROUNDUP
NATIONAL WEATHER SERVICE WAKEFIELD VA
600 AM EDT SAT MAY 27 2017

Note: "fair" indicates few or no clouds below 12,000 feet with no
significant weather and/or obstructions to visibility. * = Denotes
station may not report precipitation (e.g., rain,snow,etc.),
thunder or fog.

VAZ042-051-052>054-056-271100-
NORTHERN VIRGINIA

CITY           SKY/WX    TMP DP  RH WIND       PRES   REMARKS
WASH NATIONAL  MOCLDY    62  60  93 SE5       29.91F
DULLES         PTCLDY    56  54  93 SE6       29.88F
FORT BELVOIR   MOCLDY    56  54  95 CALM      29.90F
QUANTICO       CLEAR     60  59  96 NW5       29.91F
FREDERICKSBRG* CLEAR     57  57 100 CALM      29.90F
STAFFORD*      CLEAR     54  54 100 CALM      29.95F FOG
WARRENTON      CLEAR     57  54  90 CALM      29.89F
CULPEPER*      PTCLDY    55  55 100 CALM      29.91S FOG
MANASSAS*      PTCLDY    56  55  97 CALM      29.90F
LEESBURG*      CLOUDY    57  55  94 CALM      29.91S
WINCHESTER     CLOUDY    54  52  94 NW3       29.91R
FRONT ROYAL*   MOSUNNY   54  54 100 CALM      29.90R
LURAY*         CLOUDY    54  54 100 S3        29.91S
$$

VAZ048-049-060>072-079>083-271100-
CENTRAL AND SOUTH CENTRAL VIRGINIA

CITY           SKY/WX    TMP DP  RH WIND       PRES   REMARKS
RICHMOND       PTCLDY    56  55  97 CALM      29.92S
CHESTERFIELD*  NOT AVBL
PETERSBURG*    LGT RAIN  52  52  99 CALM      29.93S
HANOVER        CLEAR     55  52  89 E3        29.93F
TAPPAHANNOCK*  CLEAR     55  55 100 CALM      29.94S
QUINTON*       FAIR      55  55 100 CALM      29.92S
CHARLOTTSVILLE PTCLDY    58  56  93 W3        29.92R
GORDONSVILLE*  CLOUDY    55  55  99 CALM      29.91R
ORANGE*        MOCLDY    55  54  94 CALM      29.90S
LOUISA*        CLEAR     55  54  94 CALM      29.90F
BUMPASS*       FAIR      53  53 100 E3        29.90F
FARMVILLE*     PTCLDY    55  53  92 CALM      29.92R FOG
CREWE*         FAIR      55  51  87 CALM      29.92F
FORT PICKETT*  FAIR      56  53  88 CALM      29.93S
CHASE CITY*    FAIR      56  55  94 CALM      29.94R
CLARKSVILLE*   FAIR      55  55 100 CALM      29.94R
SOUTH HILL*    CLEAR     56  56 100 CALM      29.99S
LAWRENCEVILLE* FAIR      57  56  97 MISG      29.93S
EMPORIA*       CLEAR     52  52 100 CALM      29.94S FOG
$$

VAZ088>098-271100-
SOUTHEAST VIRGINIA

CITY           SKY/WX    TMP DP  RH WIND       PRES   REMARKS
NORFOLK        PTCLDY    62  58  86 CALM      29.93R
VIRGINIA BEACH PTCLDY    59  56  89 CALM      29.92R
NORFOLK NAVAL  PTCLDY    61  57  87 CALM      29.94R FOG
WEST POINT*    CLEAR     55  54  98 CALM      29.93S
SALUDA*        FAIR      57  57 100 CALM      29.93S
NEWPORT NEWS   CLEAR     58  56  93 CALM      29.93R FOG
LANGLEY AFB    CLEAR     60  60  99 CALM      29.92R
FORT EUSTIS    CLEAR     60  57  91 CALM      29.90S FOG
WILLIAMSBURG*  PTCLDY    61  61 100 CALM      29.93F
HR EXEC AP*    FAIR      54  52  94 CALM      29.93R
FRANKLIN*      CLEAR     56  55  96 CALM      29.94R
US460-WAKEFLD  CLEAR     56  56 100 CALM      29.92S FOG
$$

VAZ020-022-025-037-045-271100-
WEST CENTRAL AND SOUTHWEST VIRGINIA

CITY           SKY/WX    TMP DP  RH WIND       PRES   REMARKS
STAUNTON*      MOCLDY    53  52  95 CALM      29.95S
WAYNESBORO*    PTSUNNY   56  55  94 SW6       29.94S
HOT SPRINGS VA CLOUDY    57  46  67 W13       30.02S
LYNCHBURG      MOCLDY    56  54  93 CALM      29.96R
DANVILLE       CLEAR     55  55 100 CALM      29.94S FOG
SOUTH BOSTON*  FAIR      56  54  95 CALM      29.94R
MARTINSVILLE   MOCLDY    53  53  97 CALM      29.97S
ROANOKE        MOCLDY    61  56  83 N3        29.97R
BLACKSBURG     CLEAR     55  53  95 CALM      30.01S
DUBLIN*        PTCLDY    56  51  85 CALM      30.00S
MARION*        PTCLDY    58  54  85 CALM      30.03R
HILLSVILLE*    CLEAR     59  51  75 CALM      30.01R
RICHLANDS*     CLOUDY    64  57  78 SW7       30.01S
WISE*          CLOUDY    64  57  77 CALM      30.02S
ABINGDON*      PTCLDY    58  58  97 CALM      30.01S
$$

MDZ021>025-VAZ099-100-271100-
SOUTHERN MARYLAND AND THE DELMARVA PENINSULA

CITY           SKY/WX    TMP DP  RH WIND       PRES   REMARKS
PATUXENT RIVER PTCLDY    59  58  96 CALM      29.91F
BAY BRIDGE APT MOCLDY    61  57  88 CALM      29.90F
LEONARDTOWN    CLEAR     55  54  94 CALM      29.94S
DOVER          PTCLDY    60  58  92 NW3       29.89S
GEORGETOWN     MOCLDY    63  54  72 CALM      29.92R
EASTON         MOCLDY    63  57  82 CALM      29.94F
CAMBRIDGE      CLOUDY    61  59  94 CALM      29.92S
SALISBURY      CLOUDY    58  57  97 CALM      29.92R
OCEAN CITY     CLOUDY    61  54  77 W3        29.93R
WALLOPS ISLAND CLEAR     58  57  97 W3        29.94R
ACCOMACK*      CLEAR     57  12  17 CALM      29.93R
$$

NCZ012>017-030>032-271100-
NORTH CENTRAL AND EASTERN NORTH CAROLINA

CITY           SKY/WX    TMP DP  RH WIND       PRES   REMARKS
ROANOKE RAPIDS FAIR      57  57 100 CALM      29.93S FOG
RALEIGH        PTCLDY    61  58  90 SW3       29.95F
ELIZABETH CITY CLEAR     63  61  93 SW7       29.94R
AHOSKIE*       NOT AVBL
EDENTON*       CLEAR     69  61  74 CALM      29.95R
CURRITUCK*     CLEAR     65  61  86 SW3       29.94R
KILL DEVIL HLS CLEAR     68  61  77 CALM      29.93R
MANTEO         CLEAR     68  62  81 W7        29.95R
CAPE HATTERAS  CLEAR     71  65  81 W6        29.95R HAZE
TARBORO*       NOT AVBL
GOLDSBORO      NOT AVBL
WASHINGTON     CLEAR     62  58  84 CALM      29.95S
GREENVILLE     CLEAR     63  59  88 SW3       29.97S
NEW BERN       CLEAR     63  60  90 SW3       29.98R
WILMINGTON     CLEAR     62  60  93 CALM      29.98R
$$

VAZ048-271100-
ELSEWHERE

CITY           SKY/WX    TMP DP  RH WIND       PRES   REMARKS
HARRISBURG PA  PTCLDY    54  51  90 NE3       29.89F
BALTIMORE      PTCLDY    56  55  97 CALM      29.90F
ANNAPOLIS      PTCLDY    62  57  83 CALM      29.90F
ANDREWS AFB    PTCLDY    56  54  92 S5        29.90F
PHILADELPHIA   PTCLDY    61  51  70 W12       29.91R
HENDERSON NC   CLEAR     54  53  95 SW5       29.94S
GREENSBORO     PTCLDY    60  58  92 W5        29.94F
ROCKY MOUNT    CLEAR     60  59  96 CALM      29.94S
$$

VAZ100-271100-
MARINE

STATION/POSITION TIME  TEMP    WIND        PRES    WAVE   SWELL
                       AIR SEA DIR/SP/G            HT/PER HT/PER
                 (UTC) (F)     (DEG/KT/KT) (MB)    (FT/S) (FT/S)
CAPE MAY NJ      0948   64 63  300/  7/ 14 1012.3R
LEWES DE         0948   64 63  290/  8/ 10 1012.7R
15NM E FENWICK I 0950   61 58  280/  6/  8 1013.3R   3/ 8   3/ 8
WACHAPREAGUE VA  0948   59 70   CALM  /  1 1013.1R
THOMAS POINT MD  1000   63 64  280/  5/  5   N/A
GOOSES REEF MD   1000   66 61  330/  4/  6 1013.8    0
COVE POINT MD    0948   64     280/  2/  3 1013.7F
SOLOMONS ISLAND  0948   63 67  350/  1/  2   N/A
BISHOPS HEAD MD  0948   66 69  320/  3/  4 1013.6R
PINEY POINT MD   0942          110/  2/  2   N/A
POTOMAC MD       1000   66 66  360/  2/  2 1012.3    0
CAMBRIDGE MD     0948   63 68                N/A
LEWISETTA VA     0948   63 68  200/  3/  3 1013.1F
RAPPAHANNOCK LGT 0942           70/  3/  3 1014.1R
STINGRAY PT      1000   68 68  110/  4/  4 1013.1    0
YORK RVR RNG VA  0948   68      50/  3/  4 1012.8R
YORKTOWN VA      0948   63 69   CALM  /  1 1013.1R
JAMESTOWN VA     1000   63 71   CALM  /  2   N/A     0
DOMINION TERM VA 0948   67      40/  1/  2 1013.5R
KIPTOPEKE VA     0948      67   80/  3/  4   N/A
CHES BAY BRIDGE  0948   66 67  220/  2/  3 1013.3R
CAPE HENRY VA    0948   68     270/  5/  6   N/A
WILLOUBY STN VA  0948   68     250/  2/  2 1013.2R
S CRANEY ISL VA  0948   65     310/  2/  2 1013.3R
CAPE HENRY BUOY  0942      63                N/A     2/ 7
1ST LANDING BUOY 1000   67 66              1013.6    0
CAPE CHARLES BUO 0951      62                N/A     1/ 8
64NM E OF VA BCH 0950   65 62  230/  2/  4 1013.9R   3/ 7   3/ 7
DUCK PIER NC     0948   71 63  240/  9/ 12 1013.3R
44100 DUCK FRF   0935      65                N/A     2/ 8
44056 DUCK FRF   0900      63                N/A     1/ 8
OREGON INLET NC  0942   71 68  230/ 12/ 13 1013.5R
HATTERAS NC      0948   71 73  240/  5/  6 1014.0R
DIAMOND SHLS NC  0950   76 77  260/ 10/ 12 1014.1R   5/ 6   3/ 6
CAPE LOOKOUT NC  1000   72     280/  8/  8 1014.4R
$$




USA.gov is the U.S. government's official web portal to all federal, state and local government web resources and services.